Tracking 22094 objects as of 17-Jan-2021
HD Live streaming from Space Station
objects crossing your sky now

EAGLESAT-1

Track EAGLESAT-1 now!
10-day predictions
EAGLESAT-1 is classified as:


NORAD ID: 43018
Int'l Code: 2017-073F
Perigee: 457.7 km
Apogee: 814.4 km
Inclination: 97.7 °
Period: 97.3 minutes
Semi major axis: 7007 km
RCS: Unknown
Launch date: November 18, 2017
Source: United States (US)
Launch site: AIR FORCE WESTERN TEST RANGE (AFWTR)

Uplink (MHz):
Downlink (MHz): 437.645
Beacon (MHz):
Mode: 1200bps AFSK
Call sign:
Status: Inactive

aabbcc
Your satellite tracking list
Your tracking list is empty




NASA's NSSDC Master Catalog

Two Line Element Set (TLE):
1 43018U 17073F   21016.96357469  .00001038  00000-0  83448-4 0  9996
2 43018  97.7174 287.5509 0254481  71.9544 290.9217 14.80131840170630
Source of the keplerian elements: AFSPC